| time (UTC) | temp C | wind direction | speed KPH | gust KPH | rain 1hr cm | rain 24hr cm | rain mn cm | humidity % | barometer mb |
| 20260506152722 | 7 | 245 | 24.1 | 30.6 | 0.00 | 0.00 | 0.00 | 66 | |
| 20260506150721 | 7 | 243 | 24.1 | 30.6 | 0.00 | 0.00 | 0.00 | 65 | |
| 20260506144721 | 7 | 244 | 25.7 | 35.4 | 0.00 | 0.00 | 0.00 | 70 | |
| 20260506142721 | 7 | 243 | 29.0 | 33.8 | 0.00 | 0.00 | 0.00 | 67 | |
| 20260506140721 | 7 | 237 | 29.0 | 33.8 | 0.00 | 0.00 | 0.00 | 66 | |
| 20260506134721 | 7 | 241 | 30.6 | 33.8 | 0.00 | 0.00 | 0.00 | 70 | |
| 20260506132721 | 7 | 242 | 27.4 | 33.8 | 0.00 | 0.00 | 0.00 | 64 | |
| 20260506130720 | 8 | 249 | 32.2 | 37.0 | 0.00 | 0.00 | 0.00 | 62 | |
| 20260506124720 | 8 | 244 | 27.4 | 35.4 | 0.00 | 0.00 | 0.00 | 62 | |
| 20260506122721 | 8 | 234 | 27.4 | 35.4 | 0.00 | 0.00 | 0.00 | 63 | |
| 20260506120720 | 8 | 227 | 29.0 | 33.8 | 0.00 | 0.00 | 0.00 | 67 | |
| 20260506114721 | 7 | 226 | 29.0 | 35.4 | 0.00 | 0.00 | 0.00 | 72 | |
| 20260506112721 | 7 | 229 | 30.6 | 35.4 | 0.00 | 0.00 | 0.00 | 73 | |
| 20260506110721 | 7 | 230 | 29.0 | 38.6 | 0.00 | 0.00 | 0.00 | 74 | |
| 20260506104721 | 7 | 225 | 30.6 | 37.0 | 0.00 | 0.00 | 0.00 | 73 | |
| 20260506102722 | 7 | 224 | 24.1 | 35.4 | 0.00 | 0.00 | 0.00 | 71 | |
| 20260506100722 | 6 | 221 | 25.7 | 33.8 | 0.00 | 0.00 | 0.00 | 76 | |
| 20260506094722 | 7 | 224 | 24.1 | 30.6 | 0.00 | 0.00 | 0.00 | 72 | |
| 20260506092721 | 7 | 231 | 19.3 | 27.4 | 0.00 | 0.00 | 0.00 | 76 | |
| 20260506090721 | 7 | 234 | 22.5 | 27.4 | 0.00 | 0.00 | 0.00 | 74 | |
| 20260506084722 | 7 | 237 | 24.1 | 27.4 | 0.00 | 0.00 | 0.00 | 73 | |
| 20260506082722 | 7 | 235 | 24.1 | 29.0 | 0.00 | 0.00 | 0.00 | 72 | |
| 20260506080721 | 6 | 232 | 17.7 | 25.7 | 0.00 | 0.00 | 0.00 | 79 | |
| 20260506072722 | 7 | 230 | 14.5 | 20.9 | 0.00 | 0.00 | 0.00 | 78 | |
| 20260506070721 | 6 | 236 | 16.1 | 19.3 | 0.00 | 0.00 | 0.00 | 75 | |
| 20260506060721 | 6 | 268 | 14.5 | 17.7 | 0.00 | 0.00 | 0.00 | 68 | |
| 20260506050721 | 6 | 266 | 19.3 | 22.5 | 0.00 | 0.00 | 0.00 | 74 | |
| 20260506044721 | 5 | 259 | 17.7 | 20.9 | 0.00 | 0.00 | 0.00 | 72 | |
| 20260506042721 | 5 | 264 | 22.5 | 27.4 | 0.00 | 0.00 | 0.00 | 73 | |
| 20260506040720 | 5 | 266 | 22.5 | 25.7 | 0.00 | 0.00 | 0.00 | 75 | |
| 20260506034721 | 5 | 264 | 20.9 | 24.1 | 0.00 | 0.00 | 0.00 | 77 | |
| 20260506032720 | 4 | 268 | 20.9 | 24.1 | 0.00 | 0.00 | 0.00 | 79 | |
| 20260506030721 | 3 | 268 | 19.3 | 20.9 | 0.00 | 0.00 | 0.00 | 80 | |
| 20260506024720 | 3 | 266 | 19.3 | 20.9 | 0.00 | 0.00 | 0.00 | 79 | |
| 20260506022720 | 3 | 264 | 16.1 | 19.3 | 0.00 | 0.00 | 0.00 | 83 | |
| 20260506020720 | 3 | 271 | 17.7 | 19.3 | 0.00 | 0.00 | 0.00 | 80 | |
| 20260506014720 | 3 | 267 | 17.7 | 24.1 | 0.00 | 0.00 | 0.00 | 81 | |
| 20260506012720 | 3 | 271 | 17.7 | 19.3 | 0.00 | 0.00 | 0.00 | 81 | |
| 20260506010720 | 3 | 279 | 16.1 | 17.7 | 0.00 | 0.00 | 0.00 | 84 | |
| 20260506004720 | 3 | 288 | 17.7 | 20.9 | 0.00 | 0.00 | 0.00 | 82 | |
| 20260506000720 | 3 | 294 | 24.1 | 27.4 | 0.00 | 0.00 | 0.00 | 78 | |
| 20260505234720 | 3 | 295 | 25.7 | 27.4 | 0.00 | 0.00 | 0.00 | 76 | |
| 20260505232720 | 3 | 292 | 24.1 | 27.4 | 0.00 | 0.00 | 0.00 | 79 | |
| 20260505230720 | 3 | 289 | 25.7 | 30.6 | 0.00 | 0.00 | 0.00 | 78 | |
| 20260505224719 | 3 | 289 | 29.0 | 32.2 | 0.00 | 0.00 | 0.00 | 76 | |
| 20260505222719 | 4 | 292 | 29.0 | 33.8 | 0.00 | 0.00 | 0.00 | 76 | |
| 20260505220720 | 4 | 288 | 32.2 | 37.0 | 0.00 | 0.00 | 0.00 | 75 | |
| 20260505214720 | 4 | 284 | 32.2 | 37.0 | 0.00 | 0.00 | 0.00 | 75 | |
| 20260505212720 | 4 | 281 | 32.2 | 35.4 | 0.00 | 0.00 | 0.00 | 73 | |
| 20260505210719 | 4 | 280 | 32.2 | 37.0 | 0.00 | 0.00 | 0.00 | 72 | |
| 20260505204719 | 5 | 281 | 30.6 | 35.4 | 0.00 | 0.00 | 0.00 | 72 | |
| 20260505202720 | 5 | 278 | 35.4 | 38.6 | 0.00 | 0.00 | 0.00 | 68 | |
| 20260505200719 | 5 | 279 | 37.0 | 41.8 | 0.00 | 0.00 | 0.00 | 68 | |
| 20260505194719 | 5 | 281 | 41.8 | 48.3 | 0.00 | 0.00 | 0.00 | 66 | |
| 20260505192719 | 5 | 280 | 37.0 | 45.1 | 0.00 | 0.00 | 0.00 | 67 | |
| 20260505190719 | 5 | 257 | 38.6 | 46.7 | 0.00 | 0.00 | 0.00 | 86 | |
| 20260505184718 | 5 | 256 | 41.8 | 46.7 | 0.00 | 0.00 | 0.00 | 83 | |
| 20260505182719 | 5 | 256 | 43.5 | 49.9 | 0.00 | 0.00 | 0.00 | 82 | |
| 20260505180718 | 5 | 255 | 43.5 | 48.3 | 0.00 | 0.00 | 0.00 | 80 | |
| 20260505174718 | 5 | 252 | 43.5 | 49.9 | 0.00 | 0.00 | 0.00 | 81 | |
| 20260505172718 | 5 | 250 | 43.5 | 49.9 | 0.00 | 0.00 | 0.00 | 83 | |
| 20260505170718 | 5 | 253 | 41.8 | 46.7 | 0.00 | 0.00 | 0.00 | 83 | |
| 20260505164718 | 6 | 253 | 45.1 | 51.5 | 0.00 | 0.00 | 0.00 | 83 | |
| 20260505162718 | 6 | 253 | 43.5 | 51.5 | 0.00 | 0.00 | 0.00 | 81 | |
| 20260505160718 | 6 | 253 | 43.5 | 49.9 | 0.00 | 0.00 | 0.00 | 79 |